#timestamp,LO_Frequency,Hit,StdDev 
1540134015.1,286047002.8,N
1540134016.0,286047002.8,N
1540134035.8,286046999.8,N
1540134055.6,286047000.2,N
1540134075.5,286047002.3,N
1540134095.3,286047002.2,N
1540134115.2,286047002.0,N
1540134135.9,286047001.9,N
1540134155.7,286047004.4,N
1540134175.6,286047001.8,N
1540134195.4,286047004.4,N
1540134215.2,286047001.6,N
1540134235.1,286047001.8,N
1540134236.0,286047001.8,N
1540134255.8,286047004.4,N
1540134275.7,286047004.3,N
1540134295.5,286047003.9,N
1540134315.3,286047004.2,N
1540134335.2,286047003.8,N
1540134355.9,286047001.8,N
1540134375.7,286047001.4,N
1540134395.6,286047001.3,N
1540134415.4,286047004.4,N
1540134435.3,286047001.7,N
1540134485.1,286047020.7,E
1540134495.0,286047013.3,N
1540134495.9,286047013.3,P
1540134515.8,286047003.0,P
1540134535.6,286046998.1,N
1540134555.5,286046997.9,N
1540134575.3,286046994.1,N
1540134595.1,286046993.0,N
1540134615.9,286046990.1,N
1540134635.7,286046987.5,N
1540134655.5,286046987.2,N
1540134675.4,286046985.7,N
1540134695.2,286046986.1,N
1540134715.1,286046985.3,N
1540134716.0,286046985.3,N
1540134735.8,286046985.8,N
1540134755.6,286046986.0,N
1540134775.5,286046986.2,N
1540134795.3,286046986.0,N
1540134815.1,286046983.7,N
1540134835.9,286046986.5,N
1540134855.7,286046984.6,N
1540134875.5,286046983.8,N
1540134895.4,286046984.9,N
1540134915.2,286046984.8,N
1540134935.1,286046982.5,N
1540134936.0,286046982.5,N
1540134955.8,286046982.5,N
1540134975.7,286046982.7,N
1540134995.5,286046982.2,N
1540135015.3,286046984.2,N
1540135035.2,286046984.2,N
1540135055.0,286046986.8,N
1540135055.9,286046986.8,N
1540135075.8,286046984.1,Y
1540135095.6,286046999.0,P
1540135115.4,286047007.1,N
1540135135.3,286047023.2,N
1540135155.1,286047023.0,N
1540135175.8,286047022.4,N
1540135195.7,286047026.8,N
1540135215.5,286047025.3,N
1540135235.4,286047028.4,N
1540135255.2,286047031.3,N
1540135275.0,286047031.2,N
1540135275.9,286047031.2,N
1540135295.8,286047027.9,N
1540135315.6,286047023.1,N
1540135335.4,286047018.3,N
1540135355.3,286047015.6,N
1540135375.1,286047011.5,N
1540135395.9,286047010.4,N
1540135415.7,286047008.3,N
1540135435.5,286047008.8,N
1540135455.4,286047007.6,N
1540135475.2,286047004.6,N
1540135495.1,286047003.0,N
1540135496.0,286047003.0,N
1540135515.8,286047004.2,N
1540135535.6,286047001.3,N
1540135555.5,286047001.6,N
1540135575.3,286047001.9,N
1540135595.2,286047002.1,N
1540135615.9,286047001.6,N
1540135635.7,286047001.9,N
1540135655.6,286047002.4,N
1540135675.4,286047000.4,N
1540135695.2,286047000.2,N
1540135715.1,286047001.0,N
1540135716.0,286047001.0,N
1540135735.8,286047000.4,N
1540135755.7,286046999.8,N
1540135775.5,286047000.9,N
1540135795.3,286046998.6,N
1540135815.2,286047001.2,N
1540135835.9,286046998.6,N
1540135855.7,286046998.8,N
1540135875.6,286047000.0,N
1540135895.4,286047000.3,N
1540135915.3,286046999.7,N
1540135935.1,286047001.0,N
1540135936.0,286047001.0,N
1540135955.8,286047001.2,N
1540135975.7,286046998.2,N
1540135995.5,286047001.2,N
1540136015.3,286046998.9,N
1540136035.2,286046998.6,N
1540136055.0,286046998.1,N
1540136055.9,286046998.1,N
1540136075.8,286046998.9,N
1540136095.6,286046999.1,N
1540136115.4,286047001.1,N
1540136135.3,286046998.2,N
1540136155.1,286046998.2,N
1540136175.8,286047001.0,N
1540136195.7,286047000.8,N
1540136215.5,286046998.2,N
1540136235.4,286046998.1,N
1540136255.2,286047001.1,N
1540136275.0,286046998.6,N
1540136275.9,286046998.6,N
1540136295.8,286047001.1,N
1540136315.6,286046998.6,N
1540136335.4,286046998.4,N
1540136355.3,286046996.9,N
1540136375.1,286046998.7,N
1540136395.9,286046997.2,N
1540136415.7,286046997.9,N
1540136435.5,286046997.8,N
1540136455.4,286046997.5,N
1540136475.2,286046997.8,N
1540136495.1,286046994.9,Y
1540136496.0,286046994.9,P
1540136515.8,286046997.4,N
1540136535.6,286046999.2,N
1540136555.5,286046996.7,N
1540136575.3,286046998.9,N
1540136595.1,286046999.1,N
1540136615.9,286046998.3,N
1540136635.7,286046998.4,N
1540136655.6,286046998.2,N
1540136675.4,286046999.2,N
1540136695.2,286046999.1,N
1540136715.1,286046998.6,N
1540136716.0,286046998.6,N
1540136735.8,286046998.7,N
1540136755.6,286046998.4,N
1540136775.5,286046999.0,N
1540136795.3,286046998.4,N
1540136815.1,286046999.4,N
1540136835.9,286046996.8,Y
1540136855.7,286047000.8,P
1540136875.6,286047000.4,N
1540136895.4,286046999.9,N
1540136915.2,286047000.6,N
1540136935.1,286047002.4,N
1540136936.0,286047002.4,N
1540136955.8,286047000.8,N
1540136975.6,286046998.5,N
1540136995.5,286046998.5,N
1540137015.3,286046998.8,N
1540137035.2,286046998.7,N
1540137055.9,286046998.6,N
1540137075.7,286046999.5,N
1540137095.6,286046997.0,N
1540137115.4,286046999.3,N
1540137135.2,286046999.5,N
1540137155.1,286046999.0,N
1540137156.0,286046999.0,N
1540137175.8,286047000.8,N
1540137195.7,286046998.6,N
1540137215.5,286046998.9,N
1540137235.3,286046998.7,N
1540137255.2,286047001.0,N
1540137275.0,286047000.8,N
1540137275.9,286047000.8,N
1540137295.8,286046998.5,N
1540137315.6,286047000.9,N
1540137335.4,286047000.8,N
1540137355.3,286046998.2,N
1540137375.1,286047000.5,N
1540137395.8,286046998.2,N
1540137415.7,286046998.8,N
1540137435.5,286046999.0,N
1540137455.4,286046999.0,N
1540137475.2,286046998.1,N
1540137495.0,286047000.9,N
1540137495.9,286047000.9,N
1540137515.8,286046998.2,N
1540137535.6,286046998.7,N
1540137555.4,286046998.8,N
1540137575.3,286046999.3,N
1540137595.1,286046999.1,N
